Location: Dalton
(34.7700°N, 84.9700°W)
Time: 05:16:02
(UTC-04:00)

Vanguard 3 - Visible Passes

Search period start: 19 October 2017 00:00
Search period end: 29 October 2017 00:00
Orbit: 510 x 3263 km, 33.3° (Epoch: 18 October)

Date Brightness Start Highest point End Pass type
(mag) Time Alt. Az. Time Alt. Az. Time Alt. Az.
19 Oct 10.8 02:56:19 17° ESE 02:56:19 17° ESE 03:00:15 10° ESE visible
19 Oct 9.6 05:00:56 34° SSW 05:06:01 45° SSE 05:14:53 10° E visible
19 Oct 8.5 07:07:23 10° WSW 07:19:37 73° S 07:26:15 10° E visible
20 Oct 10.1 03:51:37 35° SE 03:51:37 35° SE 04:00:52 10° E visible
20 Oct 9.0 05:56:14 25° SW 06:05:06 63° SSE 06:13:14 10° E visible
21 Oct 10.8 02:42:14 18° ESE 02:42:14 18° ESE 02:45:44 10° E visible
21 Oct 9.5 04:46:50 46° SSW 04:50:04 52° SSE 04:59:49 10° E visible
21 Oct 8.6 06:51:27 12° WSW 07:04:01 78° S 07:11:14 10° E visible
22 Oct 10.1 03:37:23 39° SE 03:37:23 39° SE 03:45:49 10° E visible
22 Oct 9.0 05:41:59 34° WSW 05:49:16 70° SSE 05:58:07 10° E visible
23 Oct 10.9 02:27:52 18° ESE 02:27:52 18° ESE 02:30:50 10° E visible
23 Oct 9.5 04:32:28 57° S 04:34:00 59° SSE 04:44:38 10° E visible
23 Oct 8.7 06:37:03 18° WSW 06:48:21 82° S 06:56:11 10° E visible
24 Oct 10.1 03:22:53 39° ESE 03:22:53 39° ESE 03:30:35 10° E visible
24 Oct 9.1 05:27:28 44° WSW 05:33:20 75° SSE 05:42:57 10° E visible
25 Oct 11.0 02:13:16 17° E 02:13:16 17° E 02:15:39 10° E visible
25 Oct 9.4 04:17:51 65° SSE 04:17:51 65° SSE 04:29:22 10° E visible
25 Oct 8.9 06:22:26 24° W 06:32:35 84° S 06:41:05 10° E visible
26 Oct 10.2 03:08:11 38° ESE 03:08:11 38° ESE 03:15:12 10° E visible
26 Oct 9.2 05:12:46 54° WSW 05:17:19 79° S 05:27:44 10° E visible
26 Oct 8.7 07:17:49 10° W 07:31:37 80° S 07:39:03 10° ESE visible
27 Oct 11.1 01:58:30 15° E 01:58:30 15° E 02:00:13 10° E visible
27 Oct 9.5 04:03:04 67° SE 04:03:04 67° SE 04:13:59 10° E visible
27 Oct 9.0 06:07:39 30° W 06:16:44 85° S 06:25:56 10° E visible
28 Oct 10.4 02:53:20 35° E 02:53:20 35° E 02:59:41 10° E visible
28 Oct 9.3 04:57:55 64° WSW 05:01:12 82° S 05:12:27 10° E visible
28 Oct 8.8 07:02:29 13° W 07:15:52 78° SSW 07:23:56 10° ESE visible
